Location: Czekanka
(50.4925°N, 19.2643°E)
Time: 13:28:37
(UTC+00:00)

Cosmos 2228 - Pass Details

Date: 15 June 2024
Orbit: 576 x 604 km, 82.5° (Epoch: 15 July)

Event Time Altitude Azimuth Distance (km) Brightness Sun altitude
Rises 00:08:32 0° 352° (N) 2,873 7.7 -13.8°
Reaches altitude 10° 00:10:48 10° 357° (N) 1,963 6.7 -13.7°
Maximum altitude 00:15:05 57° 76° (ENE) 711 3.5 -13.5°
Enters shadow 00:19:16 10° 156° (SSE) 1,918 5.2 -13.2°
